This is the latest recevied weather packets stored in our database for station/object WS2Z. If no packets are shown the sender has not sent any weather packets the latest 10 day(s).
| Time | Temp. | Humidity | Pressure | Rain* | Wind** | Luminosity | Snow |
|---|---|---|---|---|---|---|---|
| 1777915683 | 27.78° C | 67% | 1015.1 hPa | 0 mm | - | 348 W/m² | - |
| 1777915379 | 27.22° C | 69% | 1015.3 hPa | 0 mm | - | 990 W/m² | - |
| 1777915075 | 27.22° C | 67% | 1015.4 hPa | 0 mm | - | 263 W/m² | - |
| 1777914772 | 27.78° C | 67% | 1015.5 hPa | 0 mm | - | 190 W/m² | - |
| 1777914469 | 27.78° C | 66% | 1015.5 hPa | 0 mm | - | 226 W/m² | - |
| 1777914166 | 27.78° C | 66% | 1015.6 hPa | 0 mm | - | 213 W/m² | - |
| 1777913862 | 27.78° C | 65% | 1015.7 hPa | 0 mm | - | 549 W/m² | - |
| 1777913559 | 27.78° C | 66% | 1015.6 hPa | 0 mm | - | 258 W/m² | - |
| 1777913255 | 27.22° C | 68% | 1015.8 hPa | 0 mm | - | 953 W/m² | - |
| 1777912953 | 27.22° C | 68% | 1015.8 hPa | 0 mm | - | 284 W/m² | - |
| 1777912648 | 26.67° C | 69% | 1016 hPa | 0 mm | - | 954 W/m² | - |
| 1777912344 | 26.67° C | 69% | 1015.8 hPa | 0 mm | - | 286 W/m² | - |
| 1777912040 | 27.22° C | 68% | 1016 hPa | 0 mm | - | 231 W/m² | - |
| 1777911737 | 26.67° C | 69% | 1015.8 hPa | 0 mm | - | 277 W/m² | - |
| 1777911434 | 26.67° C | 70% | 1016.1 hPa | 0 mm | - | 328 W/m² | - |
| 1777911131 | 26.67° C | 69% | 1015.9 hPa | 0 mm | - | 283 W/m² | - |
| 1777910828 | 26.67° C | 69% | 1016 hPa | 0 mm | - | 405 W/m² | - |
| 1777910525 | 26.67° C | 71% | 1016.1 hPa | 0 mm | - | 781 W/m² | - |
| 1777910221 | 26.67° C | 70% | 1016.2 hPa | 0 mm | - | 193 W/m² | - |
| 1777909918 | 27.22° C | 69% | 1016.2 hPa | 0 mm | - | 236 W/m² | - |
| 1777909615 | 26.67° C | 69% | 1016.4 hPa | 0 mm | - | 307 W/m² | - |
| 1777909313 | 26.67° C | 71% | 1016.2 hPa | 0 mm | - | 196 W/m² | - |
| 1777909010 | 26.11° C | 72% | 1016.2 hPa | 0 mm | - | 188 W/m² | - |
| 1777908708 | 26.11° C | 72% | 1016.4 hPa | 0 mm | - | 244 W/m² | - |
| 1777908405 | 25.56° C | 73% | 1016.3 hPa | 0 mm | - | 172 W/m² | - |
* Rain latest hour (hover to see other rain measurements)
** Current wind speed in m/s (hover to see current wind gust speed)